TimeCST,TemperatureF,Dew PointF,Humidity,Sea Level PressureIn,VisibilityMPH,Wind Direction,Wind SpeedMPH,Gust SpeedMPH,PrecipitationIn,Events,Conditions,WindDirDegrees,DateUTC
12:35 AM,50.0,39.2,66,30.25,10.0,Calm,Calm,-,N/A,,Clear,0,2013-11-06 06:35:00
12:55 AM,51.8,39.2,62,30.25,10.0,South,5.8,-,N/A,,Partly Cloudy,190,2013-11-06 06:55:00
1:15 AM,53.6,39.2,58,30.24,10.0,SSW,4.6,-,N/A,,Scattered Clouds,200,2013-11-06 07:15:00
1:35 AM,51.8,37.4,58,30.24,10.0,SSW,3.5,-,N/A,,Partly Cloudy,200,2013-11-06 07:35:00
1:55 AM,51.8,37.4,58,30.25,10.0,South,4.6,-,N/A,,Scattered Clouds,190,2013-11-06 07:55:00
2:15 AM,53.6,37.4,54,30.24,10.0,South,6.9,-,N/A,,Mostly Cloudy,170,2013-11-06 08:15:00
2:35 AM,53.6,37.4,54,30.23,10.0,South,4.6,-,N/A,,Scattered Clouds,190,2013-11-06 08:35:00
2:55 AM,51.8,35.6,54,30.22,10.0,South,3.5,-,N/A,,Clear,190,2013-11-06 08:55:00
3:15 AM,51.8,37.4,58,30.22,10.0,South,5.8,-,N/A,,Clear,180,2013-11-06 09:15:00
3:35 AM,51.8,37.4,58,30.22,10.0,South,5.8,-,N/A,,Clear,170,2013-11-06 09:35:00
3:55 AM,53.6,37.4,54,30.21,10.0,South,10.4,-,N/A,,Scattered Clouds,170,2013-11-06 09:55:00
4:15 AM,55.4,41.0,58,30.21,10.0,South,11.5,-,N/A,,Mostly Cloudy,170,2013-11-06 10:15:00
4:35 AM,55.4,42.8,63,30.21,10.0,South,9.2,-,N/A,,Scattered Clouds,180,2013-11-06 10:35:00
4:55 AM,55.4,44.6,67,30.20,10.0,South,8.1,-,N/A,,Partly Cloudy,170,2013-11-06 10:55:00
5:15 AM,55.4,46.4,72,30.20,10.0,South,9.2,-,N/A,,Clear,180,2013-11-06 11:15:00
5:35 AM,55.4,48.2,77,30.20,10.0,South,8.1,-,N/A,,Scattered Clouds,180,2013-11-06 11:35:00
5:55 AM,55.4,48.2,77,30.20,10.0,South,6.9,-,N/A,,Mostly Cloudy,180,2013-11-06 11:55:00
6:15 AM,55.4,50.0,82,30.20,10.0,South,8.1,-,N/A,,Overcast,170,2013-11-06 12:15:00
6:35 AM,57.2,50.0,77,30.20,10.0,South,5.8,-,N/A,,Overcast,170,2013-11-06 12:35:00
6:55 AM,57.2,51.8,82,30.20,10.0,South,8.1,-,N/A,,Mostly Cloudy,180,2013-11-06 12:55:00
7:15 AM,57.2,51.8,82,30.20,10.0,South,5.8,-,N/A,,Mostly Cloudy,180,2013-11-06 13:15:00
7:35 AM,60.8,53.6,77,30.20,10.0,South,6.9,-,N/A,,Overcast,180,2013-11-06 13:35:00
7:55 AM,60.8,53.6,77,30.21,10.0,South,12.7,-,N/A,,Overcast,180,2013-11-06 13:55:00
8:15 AM,62.6,53.6,72,30.21,10.0,South,10.4,-,N/A,,Overcast,190,2013-11-06 14:15:00
8:35 AM,62.6,53.6,72,30.20,10.0,South,11.5,-,N/A,,Overcast,190,2013-11-06 14:35:00
8:55 AM,64.4,53.6,68,30.20,10.0,South,13.8,-,N/A,,Mostly Cloudy,170,2013-11-06 14:55:00
9:15 AM,64.4,53.6,68,30.20,10.0,South,15.0,-,N/A,,Mostly Cloudy,180,2013-11-06 15:15:00
9:35 AM,66.2,55.4,68,30.20,10.0,SSW,15.0,-,N/A,,Mostly Cloudy,200,2013-11-06 15:35:00
9:55 AM,66.2,55.4,68,30.20,10.0,South,11.5,-,N/A,,Mostly Cloudy,190,2013-11-06 15:55:00
10:15 AM,66.2,55.4,68,30.19,10.0,South,9.2,-,N/A,,Mostly Cloudy,190,2013-11-06 16:15:00
10:35 AM,69.8,53.6,56,30.19,10.0,SSW,10.4,-,N/A,,Mostly Cloudy,200,2013-11-06 16:35:00
10:55 AM,71.6,53.6,53,30.18,10.0,SSW,15.0,-,N/A,,Mostly Cloudy,210,2013-11-06 16:55:00
11:15 AM,71.6,53.6,53,30.17,10.0,South,13.8,-,N/A,,Mostly Cloudy,190,2013-11-06 17:15:00
11:35 AM,69.8,53.6,56,30.16,10.0,South,15.0,-,N/A,,Mostly Cloudy,190,2013-11-06 17:35:00
11:55 AM,69.8,53.6,56,30.15,10.0,South,12.7,-,N/A,,Mostly Cloudy,180,2013-11-06 17:55:00
12:15 PM,71.6,53.6,53,30.13,10.0,South,15.0,-,N/A,,Overcast,180,2013-11-06 18:15:00
12:35 PM,73.4,55.4,53,30.12,10.0,SSW,17.3,-,N/A,,Mostly Cloudy,210,2013-11-06 18:35:00
12:55 PM,71.6,55.4,57,30.12,10.0,SSW,15.0,-,N/A,,Scattered Clouds,200,2013-11-06 18:55:00
1:15 PM,69.8,55.4,60,30.11,10.0,SSW,11.5,-,N/A,,Mostly Cloudy,200,2013-11-06 19:15:00
1:35 PM,71.6,55.4,57,30.11,10.0,SSW,12.7,-,N/A,,Overcast,210,2013-11-06 19:35:00
1:55 PM,69.8,55.4,60,30.10,10.0,SSW,15.0,-,N/A,,Mostly Cloudy,200,2013-11-06 19:55:00
2:15 PM,69.8,55.4,60,30.09,10.0,South,11.5,-,N/A,,Mostly Cloudy,190,2013-11-06 20:15:00
2:35 PM,69.8,55.4,60,30.09,10.0,South,9.2,-,N/A,,Mostly Cloudy,180,2013-11-06 20:35:00
2:55 PM,69.8,55.4,60,30.08,10.0,South,10.4,-,N/A,,Mostly Cloudy,170,2013-11-06 20:55:00
3:15 PM,69.8,55.4,60,30.08,10.0,South,10.4,-,N/A,,Overcast,190,2013-11-06 21:15:00
3:35 PM,69.8,55.4,60,30.08,10.0,South,10.4,-,N/A,,Mostly Cloudy,180,2013-11-06 21:35:00
3:55 PM,68.0,55.4,64,30.08,10.0,South,10.4,-,N/A,,Mostly Cloudy,190,2013-11-06 21:55:00
4:15 PM,66.2,55.4,68,30.08,10.0,South,6.9,-,N/A,,Overcast,190,2013-11-06 22:15:00
4:35 PM,66.2,55.4,68,30.07,10.0,South,5.8,-,N/A,,Overcast,180,2013-11-06 22:35:00
4:55 PM,66.2,55.4,68,30.07,10.0,South,5.8,-,N/A,,Mostly Cloudy,180,2013-11-06 22:55:00
5:15 PM,66.2,53.6,64,30.07,10.0,South,8.1,-,N/A,,Mostly Cloudy,180,2013-11-06 23:15:00
5:35 PM,66.2,55.4,68,30.07,10.0,South,8.1,-,N/A,,Overcast,180,2013-11-06 23:35:00
5:55 PM,66.2,55.4,68,30.07,10.0,South,6.9,-,N/A,,Overcast,170,2013-11-06 23:55:00
6:15 PM,64.4,55.4,73,30.07,10.0,South,10.4,-,N/A,,Overcast,180,2013-11-07 00:15:00
6:35 PM,64.4,55.4,73,30.08,10.0,South,6.9,-,N/A,,Overcast,190,2013-11-07 00:35:00
6:55 PM,64.4,55.4,73,30.08,8.0,South,5.8,-,N/A,,Overcast,190,2013-11-07 00:55:00
7:15 PM,62.6,55.4,77,30.08,10.0,South,5.8,-,N/A,,Overcast,190,2013-11-07 01:15:00
7:35 PM,62.6,57.2,82,30.08,9.0,South,3.5,-,N/A,,Overcast,190,2013-11-07 01:35:00
7:55 PM,62.6,57.2,82,30.08,5.0,South,3.5,-,N/A,,Overcast,190,2013-11-07 01:55:00
8:15 PM,60.8,57.2,88,30.08,4.0,Calm,Calm,-,N/A,,Overcast,0,2013-11-07 02:15:00
8:35 PM,60.8,59.0,94,30.08,3.0,Calm,Calm,-,N/A,,Overcast,0,2013-11-07 02:35:00
8:55 PM,60.8,57.2,88,30.08,4.0,Calm,Calm,-,N/A,,Overcast,0,2013-11-07 02:55:00
9:15 PM,59.0,59.0,100,30.08,4.0,Calm,Calm,-,N/A,,Overcast,0,2013-11-07 03:15:00
9:35 PM,59.0,59.0,100,30.08,3.0,Calm,Calm,-,N/A,,Overcast,0,2013-11-07 03:35:00
9:55 PM,60.8,59.0,94,30.09,2.0,Calm,Calm,-,N/A,,Overcast,0,2013-11-07 03:55:00
10:15 PM,60.8,59.0,94,30.09,1.5,Variable,5.8,-,N/A,,Overcast,0,2013-11-07 04:15:00
10:35 PM,59.0,57.2,94,30.08,2.5,SSW,3.5,-,N/A,,Overcast,200,2013-11-07 04:35:00
10:55 PM,59.0,57.2,94,30.07,10.0,South,3.5,-,N/A,,Overcast,170,2013-11-07 04:55:00
11:15 PM,59.0,57.2,94,30.08,9.0,Calm,Calm,-,N/A,,Overcast,0,2013-11-07 05:15:00
11:35 PM,59.0,57.2,94,30.07,7.0,South,3.5,-,N/A,,Mostly Cloudy,180,2013-11-07 05:35:00
11:55 PM,59.0,57.2,94,30.07,4.0,SSW,4.6,-,N/A,,Overcast,200,2013-11-07 05:55:00